GW0306 Weather Reports


time (UTC)temp
F
wind
direction
speed
knots
gust
knots
rain 1hr
in
rain 24hr
in
rain mn
in
humidity
%
barometer
mb
20260508004625 51 225 2.6 14.8 0.04 0.04 1.51 92 1003.0
20260508003604 51 270 7.0 17.4 0.01 0.01 1.49 92 1002.9
20260508003054 51 293 5.2 18.2 0.01 0.01 1.49 91 1002.8
20260508002543 51 270 5.2 18.2 0.00 0.00 1.48 91 1003.1
20260508001527 52 293 4.3 17.4 0.00 0.00 1.48 90 1002.9
20260507235953 53 270 3.5 20.0 0.00 0.00 1.48 87 1002.7
20260507235444 53 293 8.7 20.0 0.00 0.00 1.48 87 1002.6
20260507234933 53 293 7.0 18.2 0.00 0.00 1.48 86 1002.7
20260507234423 53 248 6.1 18.2 0.00 0.00 1.48 86 1002.8
20260507233913 53 270 4.3 17.4 0.00 0.00 1.48 86 1002.8
20260507233403 53 293 9.6 15.6 0.00 0.00 1.48 86 1002.8
20260507232853 53 315 7.0 13.9 0.00 0.00 1.48 86 1002.9
20260507232343 53 293 5.2 13.9 0.00 0.00 1.48 86 1002.8
20260507231832 53 315 3.5 13.0 0.00 0.00 1.48 86 1003.0
20260507230813 53 248 3.5 14.8 0.00 0.00 1.48 86 1003.1
20260507225753 54 248 7.0 13.0 0.00 0.00 1.48 85 1003.0
20260507225243 54 293 4.3 13.0 0.00 0.00 1.48 85 1003.0
20260507223712 54 315 3.5 17.4 0.00 0.00 1.48 86 1003.0
20260507222652 54 293 3.5 14.8 0.00 0.00 1.48 87 1003.2
20260507222141 53 315 6.1 14.8 0.00 0.00 1.48 88 1002.8
20260507221121 54 270 4.3 19.1 0.00 0.00 1.48 89 1002.7
20260507220611 54 270 7.0 12.2 0.00 0.00 1.48 88 1002.7
20260507220101 54 338 7.0 20.0 0.00 0.00 1.48 88 1002.4
20260507215041 54 270 7.0 20.0 0.00 0.00 1.48 87 1002.4
20260507214530 54 270 9.6 20.0 0.00 0.00 1.48 87 1002.3
20260507214020 55 270 8.7 13.9 0.00 0.00 1.48 86 1002.1
20260507213510 55 293 3.5 13.9 0.00 0.00 1.48 85 1002.2
20260507213000 55 315 7.8 13.9 0.00 0.00 1.48 85 1002.2
20260507212450 55 293 6.1 13.9 0.00 0.00 1.48 85 1002.2
20260507211940 55 270 8.7 13.9 0.00 0.00 1.48 85 1002.4
20260507211430 55 293 7.0 13.0 0.00 0.00 1.48 84 1002.4
20260507210919 55 248 4.3 11.3 0.00 0.00 1.48 84 1002.3
20260507210410 55 270 7.0 13.9 0.00 0.00 1.48 84 1002.3
20260507205900 55 338 6.1 17.4 0.00 0.00 1.48 84 1002.2
20260507204839 56 23 7.8 17.4 0.00 0.00 1.48 83 1001.9
20260507203819 56 270 5.2 13.0 0.00 0.00 1.48 82 1002.0
20260507203309 56 248 7.0 13.0 0.00 0.00 1.48 82 1001.6
20260507202249 56 293 6.1 13.9 0.00 0.00 1.48 80 1001.8
20260507201228 56 293 6.1 17.4 0.00 0.00 1.48 79 1001.5
20260507200718 57 315 7.8 17.4 0.00 0.00 1.48 78 1001.7
20260507195658 57 315 2.6 12.2 0.00 0.00 1.48 78 1001.2
20260507195147 57 293 7.0 12.2 0.00 0.00 1.48 77 1000.9
20260507194638 57 225 7.0 13.0 0.00 0.00 1.48 77 1000.8
20260507194128 57 248 7.0 13.0 0.00 0.00 1.48 77 1000.5
20260507192047 57 293 6.1 13.0 0.00 0.00 1.48 75 1000.9
20260507191028 58 270 6.1 17.4 0.00 0.00 1.48 75 1000.9
20260507190007 59 270 8.7 14.8 0.00 0.00 1.48 73 1001.4
20260507184437 58 270 7.0 17.4 0.00 0.00 1.48 74 1002.3
20260507183926 58 270 7.8 17.4 0.00 0.00 1.48 74 1002.4
20260507183416 58 293 7.8 19.1 0.00 0.00 1.48 74 1002.4
20260507182356 58 248 7.0 15.6 0.00 0.00 1.48 74 1002.6
20260507181843 59 315 5.2 21.7 0.00 0.00 1.48 74 1002.8
20260507181333 58 293 14.8 21.7 0.00 0.00 1.48 73 1003.1
20260507180825 58 293 7.0 14.8 0.00 0.00 1.48 74 1003.3
20260507175806 59 293 5.2 13.9 0.00 0.00 1.48 76 1003.3
20260507175255 58 315 8.7 13.9 0.00 0.00 1.48 75 1003.3
20260507174235 58 293 7.0 11.3 0.00 0.00 1.48 76 1003.4
20260507173725 58 293 2.6 13.0 0.00 0.00 1.48 76 1003.4
20260507172704 58 293 7.0 14.8 0.00 0.00 1.48 76 1002.5
20260507172154 58 338 10.4 14.8 0.00 0.00 1.48 76 1002.0
20260507171645 58 248 8.7 13.0 0.00 0.00 1.48 76 1002.1
20260507170624 58 315 6.1 14.8 0.00 0.00 1.48 76 1002.2
20260507170114 58 270 5.2 14.8 0.00 0.00 1.48 76 1002.2
20260507165605 58 248 7.0 9.6 0.00 0.00 1.48 77 1001.9
20260507165054 59 248 1.7 9.6 0.00 0.00 1.48 77 1002.0
20260507164544 58 293 3.5 9.6 0.00 0.00 1.48 77 1002.2
20260507164033 58 248 5.2 11.3 0.00 0.00 1.48 77 1002.3
20260507163524 58 248 5.2 11.3 0.00 0.00 1.48 77 1002.7
20260507163013 58 338 5.2 13.9 0.00 0.00 1.48 77 1002.7
20260507162504 58 248 5.2 13.9 0.00 0.00 1.48 77 1003.0
20260507161443 58 293 7.0 18.2 0.00 0.00 1.48 77 1003.1
20260507160933 58 248 9.6 18.2 0.00 0.00 1.48 77 1003.2
20260507155913 59 270 5.2 17.4 0.00 0.00 1.48 77 1002.6
20260507155403 59 203 3.5 13.9 0.00 0.00 1.48 78 1002.5
20260507154853 58 270 8.7 13.9 0.00 0.00 1.48 78 1002.5
20260507153832 58 225 7.0 13.0 0.00 0.00 1.48 79 1002.3
20260507153323 58 203 7.0 13.0 0.00 0.00 1.48 79 1002.3
20260507152813 58 248 3.5 12.2 0.00 0.00 1.48 79 1002.7
20260507151752 58 270 5.2 13.9 0.00 0.00 1.48 79 1002.2
20260507151242 58 270 2.6 13.9 0.00 0.00 1.48 80 1002.3
20260507150732 58 248 4.3 17.4 0.00 0.00 1.48 79 1002.5
20260507150222 58 270 6.1 17.4 0.00 0.00 1.48 79 1002.2
20260507145711 58 248 7.0 12.2 0.00 0.00 1.48 79 1002.7
20260507144651 59 293 4.3 13.9 0.00 0.00 1.48 79 1002.5
20260507144141 58 225 9.6 13.9 0.00 0.00 1.48 79 1002.8
20260507143637 58 248 8.7 13.0 0.00 0.00 1.48 79 1002.6
20260507143121 58 203 4.3 13.9 0.00 0.00 1.48 81 1002.4
20260507142611 58 225 4.3 19.1 0.00 0.00 1.48 81 1002.3
20260507141551 57 270 10.4 19.1 0.00 0.00 1.48 85 1002.4
20260507141040 58 248 7.0 9.6 0.00 0.00 1.48 87 1002.6
20260507140540 58 270 3.5 9.6 0.00 0.00 1.48 88 1002.6
20260507135511 59 270 3.5 6.1 0.00 0.00 1.48 89 1002.3
20260507135000 59 315 3.5 6.1 0.00 0.00 1.48 89 1001.7
20260507133939 59 248 1.7 6.1 0.00 0.00 1.48 89 1002.0
20260507133430 59 248 0.9 6.1 0.00 0.00 1.48 89 1002.5
20260507132409 59 248 1.7 6.1 0.00 0.00 1.48 89 1002.4
20260507131350 60 225 1.7 9.6 0.00 0.00 1.48 89 1002.9
20260507130839 60 270 1.7 7.0 0.00 0.00 1.48 89 1002.8
20260507130329 60 270 1.7 7.0 0.00 0.00 1.48 89 1002.6
20260507125819 59 293 3.5 7.0 0.00 0.00 1.48 89 1003.2
20260507125309 59 315 1.7 7.0 0.00 0.00 1.48 89 1002.9
20260507124758 59 293 3.5 7.0 0.00 0.00 1.48 89 1002.9
20260507123738 60 293 1.7 3.5 0.00 0.00 1.48 89 1002.3
20260507123228 60 293 1.7 7.0 0.00 0.00 1.48 89 1001.9
20260507122718 60 248 1.7 7.0 0.00 0.00 1.48 89 1001.6
20260507121657 59 248 2.6 7.0 0.00 0.00 1.48 89 1001.9
20260507121148 60 225 3.5 6.1 0.00 0.00 1.48 89 1002.0
20260507120638 59 270 3.5 9.6 0.00 0.00 1.48 89 1001.9
20260507120127 59 248 2.6 9.6 0.00 0.00 1.48 89 1001.6
20260507115618 59 270 2.6 13.9 0.00 0.00 1.48 90 1001.4
20260507115107 59 270 3.5 13.9 0.00 0.00 1.48 90 1001.6
20260507114558 59 225 5.2 12.2 0.00 0.00 1.48 90 1000.9
20260507114047 59 225 5.2 12.2 0.00 0.00 1.48 90 1000.2
20260507113537 59 225 5.2 13.9 0.00 0.00 1.48 91 1000.6
20260507113027 59 225 7.8 14.8 0.00 0.00 1.48 91 1001.1
20260507112517 59 203 6.1 14.8 0.00 0.00 1.48 91 1001.3
20260507112006 59 270 8.7 13.9 0.00 0.00 1.48 92 1001.4
20260507111457 58 315 5.2 11.3 0.00 0.00 1.48 92 1001.8
20260507110437 58 338 3.5 12.2 0.00 0.00 1.48 93 1001.2
20260507105926 58 225 3.5 9.6 0.00 0.00 1.48 94 1001.2
20260507105416 58 225 7.0 9.6 0.00 0.00 1.48 94 1000.9
20260507104906 58 203 4.3 9.6 0.00 0.00 1.48 94 1000.0
20260507104356 58 248 3.5 7.8 0.00 0.00 1.48 95 1000.1
20260507103335 58 248 1.7 9.6 0.00 0.00 1.48 95 1000.7
20260507102826 59 225 3.5 12.2 0.00 0.00 1.48 95 1000.9
20260507102315 59 315 3.5 12.2 0.00 0.00 1.48 95 1001.3
20260507101805 59 293 3.5 6.1 0.00 0.00 1.48 95 1001.2
20260507101255 59 315 1.7 12.2 0.00 0.00 1.48 95 1000.5
20260507095725 59 293 6.1 13.9 0.00 0.00 1.48 95 999.9
20260507095215 60 270 6.1 13.9 0.00 0.00 1.48 95 999.1
20260507094705 60 248 3.5 9.6 0.00 0.00 1.48 95 999.0
20260507093645 60 248 3.5 9.6 0.00 0.00 1.48 95 1000.3
20260507092114 60 248 6.1 9.6 0.00 0.00 1.48 95 1000.8
20260507091604 60 248 3.5 9.6 0.00 0.00 1.48 95 1000.9
20260507091053 61 270 1.7 9.6 0.00 0.00 1.48 95 1001.0
20260507090544 61 315 3.5 7.8 0.00 0.00 1.48 95 1000.9
20260507090034 61 270 3.5 7.0 0.00 0.00 1.48 95 1001.0
20260507085523 61 248 3.5 7.0 0.00 0.00 1.48 95 1001.2
20260507085013 61 293 1.7 5.2 0.00 0.00 1.48 95 1000.7
20260507084504 61 248 2.6 5.2 0.00 0.00 1.48 95 1000.1
20260507083443 61 225 1.7 7.0 0.00 0.00 1.48 95 999.5
20260507082933 61 248 3.5 9.6 0.00 0.00 1.48 95 1000.2
20260507082422 61 248 3.5 9.6 0.00 0.00 1.48 95 1000.5
20260507081912 61 203 3.5 9.6 0.00 0.00 1.48 95 1000.5
20260507081403 62 293 3.5 9.6 0.00 0.00 1.48 95 1001.1
20260507080852 62 270 3.5 5.2 0.00 0.00 1.48 95 1001.6
20260507080147 46 293 3.5 0.0 0.00 0.00 1.48 81 1001.6
20260507075524 62 270 3.5 7.0 0.00 1.50 1.48 95 1001.7
20260507075014 62 225 3.5 7.0 0.00 1.50 1.48 95 1001.9
20260507074504 62 270 2.6 7.0 0.00 1.50 1.48 95 1002.0
20260507073444 62 270 4.3 7.8 0.00 1.50 1.48 95 1000.8
20260507072933 62 248 3.5 7.0 0.00 1.50 1.48 95 1000.4
20260507072423 63 270 3.5 7.0 0.00 1.50 1.48 95 1000.4
20260507071913 63 248 1.7 3.5 0.01 1.50 1.48 95 1000.7
20260507071404 63 203 1.7 3.5 0.01 1.50 1.48 95 1000.3
20260507070343 63 225 0.0 3.5 0.01 1.50 1.48 95 1000.5
20260507065833 63 293 1.7 3.5 0.01 1.50 1.48 95 1000.7
20260507065323 63 315 0.0 3.5 0.01 1.50 1.48 95 1000.5
20260507064813 63 0 1.7 3.5 0.02 1.50 1.48 95 999.6
20260507063753 63 68 1.7 3.5 0.05 1.50 1.48 95 999.3
20260507063242 63 113 0.9 7.8 0.07 1.50 1.48 95 999.3
20260507062222 63 135 3.5 13.0 0.08 1.50 1.48 95 998.8
20260507061713 63 180 4.3 6.1 0.08 1.49 1.46 95 998.3
20260507061202 63 90 1.7 5.2 0.09 1.49 1.46 95 1000.1
20260507060652 63 113 0.9 6.1 0.11 1.49 1.46 95 1000.2
20260507060142 64 203 2.6 6.1 0.11 1.49 1.46 95 999.6
20260507055631 64 158 1.7 1.7 0.11 1.49 1.46 95 1000.0
20260507055122 64 90 0.0 3.5 0.11 1.49 1.46 95 1001.5
20260507054612 63 158 0.9 3.5 0.11 1.48 1.45 94 1001.9
20260507054101 64 135 1.7 3.5 0.09 1.46 1.44 95 1002.5
20260507053042 64 315 1.7 5.2 0.07 1.43 1.41 94 1003.2
20260507052530 64 293 1.7 5.2 0.06 1.42 1.39 94 1002.9
20260507051521 64 203 2.6 11.3 0.08 1.41 1.38 94 1002.2
20260507051000 64 248 5.2 11.3 0.08 1.38 1.37 94 1001.4
20260507050450 65 180 6.1 9.6 0.09 1.38 1.36 94 1000.8
20260507045430 65 225 3.5 7.0 0.15 1.38 1.36 94 1001.6
20260507044920 65 203 4.3 7.8 0.21 1.38 1.36 94 1000.8
20260507043900 65 203 4.3 7.0 0.50 1.37 1.35 94 1001.4
20260507042840 65 315 2.6 3.5 0.61 1.36 1.33 94 1002.5
20260507042329 65 180 1.7 3.5 0.73 1.36 1.33 94 1001.7
20260507041820 66 135 0.9 1.7 0.93 1.33 1.31 94 1002.1
20260507041310 66 135 0.9 9.6 1.11 1.31 1.29 94 1002.1
20260507040249 66 248 4.3 9.6 1.23 1.28 1.25 94 1000.7
20260507035739 66 248 5.2 12.2 1.22 1.24 1.22 94 1000.1
20260507035229 66 225 2.6 12.2 1.18 1.20 1.18 93 1001.1
20260507034719 68 248 3.5 11.3 1.12 1.15 1.12 93 1001.6
20260507034208 68 248 6.1 9.6 0.92 0.94 0.92 93 1001.2
20260507033659 68 248 6.1 11.3 0.81 0.84 0.81 93 999.9
20260507033149 68 225 5.2 12.2 0.78 0.80 0.78 93 1000.4
20260507032638 69 293 6.1 13.0 0.70 0.72 0.71 93 1000.1
20260507032128 69 248 6.1 13.0 0.52 0.54 0.53 92 1000.4
20260507031618 69 248 4.3 13.0 0.28 0.31 0.31 92 1000.4
20260507031109 69 270 4.3 13.0 0.09 0.12 0.11 91 1000.1
20260507030049 71 293 8.7 21.7 0.00 0.02 0.01 87 998.8
20260507025538 77 338 16.5 21.7 0.00 0.02 0.02 79 999.6
20260507024517 78 68 6.1 13.0 0.00 0.02 0.02 80 998.2
20260507024007 78 338 6.1 14.8 0.00 0.02 0.02 80 998.3
20260507023457 78 0 6.1 14.8 0.00 0.02 0.02 79 998.5
20260507022947 78 23 4.3 13.0 0.00 0.02 0.02 79 998.4
20260507022437 78 23 7.0 13.0 0.00 0.02 0.02 79 998.3
20260507021927 79 0 7.0 13.0 0.00 0.02 0.02 78 998.5
20260507021417 79 23 2.6 14.8 0.00 0.02 0.02 78 998.7
20260507020906 79 0 9.6 14.8 0.00 0.02 0.02 79 999.0
20260507015846 79 23 3.5 13.0 0.00 0.02 0.02 79 999.2
20260507015336 79 23 7.0 13.0 0.00 0.02 0.02 79 999.3
20260507014826 79 338 5.2 12.2 0.00 0.02 0.02 79 999.6
20260507014316 79 23 4.3 14.8 0.00 0.02 0.02 79 999.9
20260507013806 79 0 7.0 14.8 0.00 0.02 0.02 79 999.9
20260507013256 79 0 7.0 13.9 0.00 0.02 0.02 79 999.7
20260507012746 79 23 5.2 13.0 0.00 0.02 0.02 79 999.6
20260507011726 79 23 4.3 17.4 0.00 0.02 0.02 78 999.6
20260507011215 79 338 8.7 17.4 0.00 0.02 0.02 78 1000.2
20260507010705 80 338 5.2 14.8 0.00 0.02 0.02 77 999.9
20260507010155 79 315 3.5 17.4 0.00 0.02 0.02 78 999.7
20260507005135 80 45 5.2 13.0 0.00 0.02 0.02 77 999.7